Regional Weather Roundup
Issued by NWS

Home | Current Version | Previous Version | Text Only | Print | Product List | Glossary Off
Versions: 1 2 3 4 5 6 7 8 9 10 11 12 13 14 15 16 17 18 19 20 21 22 23 24 25 26 27 28 29 30 31 32 33 34 35 36 37 38 39 40 41 42 43 44 45 46 47 48 49 50

000
ASUS43 KDTX 021001
RWRMI
MICHIGAN HOURLY REGIONAL WEATHER ROUNDUP
NATIONAL WEATHER SERVICE DETROIT/PONTIAC MI
600 AM EDT WED SEP 02 2015

NOTE: "FAIR" INDICATES FEW OR NO CLOUDS BELOW 12,000 FEET WITH NO
SIGNIFICANT WEATHER AND/OR OBSTRUCTION TO VISIBILITY.

MIZ047>049-052>055-059>063-066>070-074>076-081>083-021100-
SOUTHEAST LOWER MICHIGAN

CITY           SKY/WX    TMP DP  RH WIND       PRES   REMARKS
ADRIAN         CLEAR     67  66  97 SW3       30.07S FOG
ALMA           PTCLDY    70  69  98 SW6       30.02S FOG
ANN ARBOR      FOG       65  65 100 CALM      30.05S VSB 1
BAD AXE        CLEAR     66  66  98 CALM      30.02F FOG
DETROIT CITY   PTCLDY    73  68  84 W5        30.04S
DETROIT        PTCLDY    71  68  90 S3        30.05S FOG
FLINT          CLEAR     70  66  87 SW3       30.03S FOG
GROSSE ILE     CLEAR     70  66  88 CALM      30.04S
HILLSDALE      CLEAR     71  70  98 CALM      30.07S
HOWELL         CLEAR     69  68  96 CALM      30.04F FOG

CITY           SKY/WX    TMP DP  RH WIND       PRES   REMARKS
JACKSON        CLEAR     69  67  93 SW5       30.05F FOG
LAMBERTVILLE   CLEAR     70  66  89 CALM      30.07S
LANSING        MOCLDY    71  68  90 CALM      30.04S
LAPEER         FAIR      62  62 100 CALM      30.04S FOG
MASON          PTCLDY    69  65  89 CALM      30.04F FOG
MONROE         CLEAR     67  67  97 CALM      30.04F FOG
MT. CLEMENS    CLEAR     69  67  94 MISG      30.02S FOG
PONTIAC        CLEAR     68  66  93 CALM      30.04S FOG
PORT HOPE        N/A     71  68  90 SW6       29.99S
PORT HURON     FOG       63  63 100 CALM      30.03F VSB 1/2
TRI CITIES     CLEAR     72  69  90 S6        30.01S FOG
MIDLAND        MOCLDY    70  69  97 CALM      29.99F FOG
TROY           CLEAR     72  69  92 SW3       30.06S
SAGINAW HB     CLEAR     70  68  94 S5        30.00F FOG
$$
MIZ043>046-050>051-056>058-064>065-071>073-077>080-021100-
SOUTHWEST LOWER MICHIGAN

CITY           SKY/WX    TMP DP  RH WIND       PRES   REMARKS
BATTLE CREEK   CLEAR     70  68  93 SW5       30.05S
BENTON HARBOR  CLEAR     69  67  93 CALM      30.03S
BIG RAPIDS     MOCLDY    69  68  98 CALM      30.00S FOG
COLDWATER      PTCLDY    69  68  96 SW5       30.06S
FREMONT          N/A     69  69 100 CALM      30.00S FOG
HOLLAND        PTCLDY    76  70  82 SW12      30.02S
GRAND RAPIDS   PTCLDY    72  70  93 S5        30.02S
IONIA          MOCLDY    73  71  95 SW6       30.02S
KALAMAZOO      CLEAR     70  67  90 SW7       30.04F
LUDINGTON      CLEAR     73  70  89 SW6       29.97F
MARSHALL       PTCLDY    69  67  94 CALM      30.04F
MOUNT PLEASANT PTCLDY    73  70  92 SW3       29.99F FOG
MUSKEGON       MOCLDY    75  69  81 SW10      29.99F
SOUTH HAVEN    PTCLDY    72  68  87 SW5       30.03S
$$
MIZ016>042-021100-
NORTHERN LOWER MICHIGAN

CITY           SKY/WX    TMP DP  RH WIND       PRES   REMARKS
ALPENA         FOG       66  64  93 CALM      29.97F VSB 1
BEAVER ISLAND  PTCLDY    69  67  94 SW3       29.95F FOG
BELLAIRE       FOG       67  65  95 CALM      29.97S VSB 1/4
CADILLAC       MOCLDY    68  67  98 CALM      30.00F FOG
CHARLEVOIX     PTCLDY    72  70  94 CALM      29.98S
FRANKFORT      PTCLDY    70  68  95 CALM      29.95F FOG
GAYLORD        PTCLDY    70  70 100 S3        30.00S FOG
GRAYLING       PTCLDY    63  62  96 CALM      30.00F FOG
HARBOR SPRINGS PTCLDY    68  67  96 CALM      29.96S FOG
HOUGHTON LAKE  CLEAR     69  68  96 SW5       30.01S FOG
MANISTEE       CLEAR     68  64  88 CALM      29.97F
OSCODA         PTCLDY    69  68  97 S3        29.97F FOG
PELLSTON       MOCLDY    68  67  96 CALM      29.96S FOG
ROGERS CITY    MOCLDY    72  68  89 SW6       29.96F
TRAVERSE CITY  MOCLDY    75  69  81 VRB5      29.95S
$$
MIZ007>008-015-021100-
EASTERN UPPER MICHIGAN

CITY           SKY/WX    TMP DP  RH WIND       PRES   REMARKS
KINROSS        CLOUDY    68  66  94 CALM      29.96S VSB 1/4
MACKINAC ISLAN CLOUDY    69  68  97 W7        29.95F FOG
NEWBERRY       FOG       64  64  99 CALM      29.95S VSB 1/4
S. S. MARIE    CLOUDY    69  67  93 CALM      29.95S FOG
$$
MIZ004>006-011>014-085-021100-
CENTRAL UPPER MICHIGAN

CITY           SKY/WX    TMP DP  RH WIND       PRES   REMARKS
MANISTIQUE     FOG       61  60  97 CALM      29.95R VSB 1/4
ESCANABA       MOCLDY    63  63 100 CALM      29.93S
MENOMINEE      PTCLDY    70  66  88 CALM      29.93S
SAWYER-GWINN   FOG       64  62  94 CALM      29.97S VSB 3/4
$$
MIZ001>003-009>011-084-021100-
WESTERN UPPER MICHIGAN

CITY           SKY/WX    TMP DP  RH WIND       PRES   REMARKS
IRON MOUNTAIN  PTCLDY    67  65  93 NW3       29.96S FOG
HOUGHTON       PTCLDY    57  56  96 N5        29.95S
IRONWOOD       MOCLDY    64  64 100 E3        29.93S
$$

ABBREVIATIONS USED IN REMARKS
   TC - TEMPERATURE IN CELSIUS
  WCI - WIND CHILL INDEX
   HX - HEAT INDEX
  VSB - VISIBILITY




USA.gov is the U.S. government's official web portal to all federal, state and local government web resources and services.